"read_dt","SO2 (ppb)","flags","PMT voltage (V)","lamp voltage (V)","lamp intensity (Hz)","internal temp (C)","react chamber temp (C)","sample flow (l/min)","pres (mmHg)","SO2 bkg (ppb)","SO2 coefficient"
2015-06-07 00:00:00,1657E-3,5C000000,-0723,0829,12084,031.6,045.6,0.470,732.6,01.19,0.508
2015-06-07 00:01:00,1717E-3,5C000000,-0723,0829,12387,031.6,045.6,0.469,732.7,01.19,0.508
2015-06-07 00:02:00,1864E-3,5C000000,-0723,0828,12214,031.6,045.6,0.470,732.7,01.19,0.508
2015-06-07 00:03:00,1711E-3,5C000000,-0723,0829,12241,031.7,045.6,0.470,732.7,01.19,0.508
2015-06-07 00:04:00,1684E-3,5C000000,-0723,0830,12263,031.6,045.6,0.470,732.7,01.19,0.508
2015-06-07 00:05:00,1694E-3,5C000000,-0723,0828,12096,031.7,045.6,0.470,732.7,01.19,0.508
2015-06-07 00:06:00,1766E-3,5C000000,-0723,0829,12216,031.7,045.6,0.469,732.6,01.19,0.508
2015-06-07 00:07:00,1723E-3,5C000000,-0723,0829,12286,031.7,045.6,0.470,732.7,01.19,0.508
2015-06-07 00:08:00,1778E-3,5C000000,-0723,0829,12244,031.7,045.6,0.470,732.7,01.19,0.508
2015-06-07 00:09:00,1757E-3,5C000000,-0723,0830,12307,031.7,045.6,0.470,732.8,01.19,0.508
2015-06-07 00:10:00,1702E-3,5C000000,-0723,0829,12280,031.7,045.6,0.469,732.7,01.19,0.508
2015-06-07 00:11:00,1743E-3,5C000000,-0723,0829,11956,031.7,045.6,0.469,732.7,01.19,0.508
2015-06-07 00:12:00,1728E-3,5C000000,-0723,0829,12159,031.7,045.6,0.470,732.7,01.19,0.508
2015-06-07 00:13:00,1713E-3,5C000000,-0723,0829,12231,031.7,045.6,0.470,732.6,01.19,0.508
2015-06-07 00:14:00,1670E-3,5C000000,-0723,0829,12307,031.7,045.6,0.470,732.7,01.19,0.508
2015-06-07 00:15:00,1821E-3,5C000000,-0723,0828,12271,031.7,045.6,0.469,732.7,01.19,0.508
2015-06-07 00:16:00,1668E-3,5C000000,-0723,0830,12072,031.7,045.6,0.469,732.7,01.19,0.508
2015-06-07 00:17:00,1625E-3,5C000000,-0723,0829,12180,031.8,045.6,0.470,732.7,01.19,0.508
2015-06-07 00:18:00,1796E-3,5C000000,-0723,0829,12271,031.8,045.6,0.470,732.7,01.19,0.508
2015-06-07 00:19:00,1711E-3,5C000000,-0723,0829,12077,031.8,045.6,0.469,732.8,01.19,0.508
2015-06-07 00:20:00,1706E-3,5C000000,-0723,0829,12136,031.8,045.6,0.469,732.8,01.19,0.508
2015-06-07 00:21:00,1697E-3,5C000000,-0723,0828,12096,031.8,045.6,0.470,732.7,01.19,0.508
2015-06-07 00:22:00,1587E-3,5C000000,-0723,0828,12152,031.8,045.6,0.470,732.7,01.19,0.508
2015-06-07 00:23:00,1733E-3,5C000000,-0723,0829,12312,031.8,045.6,0.469,732.6,01.19,0.508
2015-06-07 00:24:00,1702E-3,5C000000,-0723,0827,12272,031.8,045.6,0.469,732.7,01.19,0.508
2015-06-07 00:25:00,1744E-3,5C000000,-0723,0828,12280,031.8,045.6,0.469,732.7,01.19,0.508
2015-06-07 00:26:00,1684E-3,5C000000,-0723,0828,12249,031.7,045.6,0.470,732.7,01.19,0.508
2015-06-07 00:27:00,1713E-3,5C000000,-0723,0829,12221,031.8,045.5,0.469,732.7,01.19,0.508
2015-06-07 00:28:00,1657E-3,5C000000,-0723,0827,12135,031.8,045.6,0.469,732.8,01.19,0.508
2015-06-07 00:29:00,1696E-3,5C000000,-0723,0828,12128,031.8,045.6,0.469,732.7,01.19,0.508
2015-06-07 00:30:00,1753E-3,5C000000,-0723,0828,12166,031.8,045.6,0.470,732.7,01.19,0.508
2015-06-07 00:31:00,1788E-3,5C000000,-0723,0828,12246,031.8,045.6,0.470,732.7,01.19,0.508
2015-06-07 00:32:00,1865E-3,5C000000,-0723,0829,12193,031.8,045.6,0.469,732.6,01.19,0.508
2015-06-07 00:33:00,1678E-3,5C000000,-0723,0829,12094,031.8,045.6,0.469,732.7,01.19,0.508
2015-06-07 00:34:00,1739E-3,5C000000,-0723,0828,12256,031.8,045.6,0.470,732.7,01.19,0.508
2015-06-07 00:35:00,1626E-3,5C000000,-0723,0828,12302,031.8,045.6,0.470,732.6,01.19,0.508
2015-06-07 00:36:00,1624E-3,5C000000,-0723,0829,12160,031.8,045.6,0.469,732.6,01.19,0.508
2015-06-07 00:37:00,1664E-3,5C000000,-0723,0828,12117,031.8,045.6,0.469,732.7,01.19,0.508
2015-06-07 00:38:00,1635E-3,5C000000,-0723,0829,12447,031.8,045.6,0.469,732.6,01.19,0.508
2015-06-07 00:39:00,1773E-3,5C000000,-0723,0828,12286,031.8,045.6,0.470,732.6,01.19,0.508
2015-06-07 00:40:00,1731E-3,5C000000,-0723,0829,12170,031.9,045.6,0.469,732.7,01.19,0.508
2015-06-07 00:41:00,1770E-3,5C000000,-0723,0828,12115,031.8,045.6,0.469,732.7,01.19,0.508
2015-06-07 00:42:00,1846E-3,5C000000,-0723,0827,12040,031.9,045.6,0.469,732.6,01.19,0.508
2015-06-07 00:43:00,1728E-3,5C000000,-0723,0828,12288,031.9,045.6,0.470,732.6,01.19,0.508
2015-06-07 00:44:00,1655E-3,5C000000,-0723,0828,12203,031.9,045.6,0.469,732.7,01.19,0.508
2015-06-07 00:45:00,1742E-3,5C000000,-0723,0828,12192,031.9,045.6,0.469,732.6,01.19,0.508
2015-06-07 00:46:00,1668E-3,5C000000,-0723,0828,12178,031.9,045.6,0.469,732.6,01.19,0.508
2015-06-07 00:47:00,1561E-3,5C000000,-0723,0829,12143,031.9,045.6,0.470,732.6,01.19,0.508
2015-06-07 00:48:00,1692E-3,5C000000,-0723,0828,12155,031.9,045.6,0.469,732.6,01.19,0.508
2015-06-07 00:49:00,1644E-3,5C000000,-0723,0828,12162,031.9,045.6,0.469,732.6,01.19,0.508
2015-06-07 00:50:00,1825E-3,5C000000,-0723,0829,12043,031.9,045.6,0.469,732.7,01.19,0.508
2015-06-07 00:51:00,1864E-3,5C000000,-0723,0829,12072,031.9,045.6,0.469,732.7,01.19,0.508
2015-06-07 00:52:00,1814E-3,5C000000,-0723,0829,12228,031.9,045.6,0.469,732.6,01.19,0.508
2015-06-07 00:53:00,1799E-3,5C000000,-0723,0828,12170,031.9,045.6,0.469,732.7,01.19,0.508
2015-06-07 00:54:00,1776E-3,5C000000,-0723,0829,12275,031.9,045.6,0.469,732.7,01.19,0.508
2015-06-07 00:55:00,1693E-3,5C000000,-0723,0828,12198,031.9,045.6,0.469,732.7,01.19,0.508
2015-06-07 00:56:00,1654E-3,5C000000,-0723,0828,12344,031.9,045.6,0.470,732.8,01.19,0.508
2015-06-07 00:57:00,1678E-3,5C000000,-0723,0828,12099,031.9,045.6,0.469,732.7,01.19,0.508
2015-06-07 00:58:00,1752E-3,5C000000,-0723,0829,12410,031.9,045.6,0.469,732.7,01.19,0.508
2015-06-07 00:59:00,1782E-3,5C000000,-0723,0828,12260,032.0,045.6,0.469,732.8,01.19,0.508
2015-06-07 01:00:00,1701E-3,5C000000,-0723,0828,11904,032.0,045.6,0.470,732.8,01.19,0.508
2015-06-07 01:01:00,1836E-3,5C000000,-0723,0827,12316,032.0,045.6,0.469,732.7,01.19,0.508
2015-06-07 01:02:00,1709E-3,5C000000,-0723,0828,12297,032.0,045.6,0.469,732.7,01.19,0.508
2015-06-07 01:03:00,1739E-3,5C000000,-0723,0830,12252,032.0,045.6,0.469,732.7,01.19,0.508
2015-06-07 01:04:00,1789E-3,5C000000,-0723,0828,12271,032.0,045.6,0.469,732.7,01.19,0.508
2015-06-07 01:05:00,1784E-3,5C000000,-0723,0828,12209,032.0,045.6,0.469,732.7,01.19,0.508
2015-06-07 01:06:00,1746E-3,5C000000,-0723,0828,12305,032.0,045.6,0.469,732.7,01.19,0.508
2015-06-07 01:07:00,1873E-3,5C000000,-0723,0827,12058,032.0,045.6,0.469,732.7,01.19,0.508
2015-06-07 01:08:00,1821E-3,5C000000,-0723,0829,12356,032.0,045.6,0.469,732.8,01.19,0.508
2015-06-07 01:09:00,1651E-3,5C000000,-0723,0827,12142,032.0,045.6,0.469,732.8,01.19,0.508
2015-06-07 01:10:00,1730E-3,5C000000,-0723,0827,12478,032.0,045.6,0.469,732.8,01.19,0.508
2015-06-07 01:11:00,1680E-3,5C000000,-0723,0828,12223,032.0,045.6,0.469,732.8,01.19,0.508
2015-06-07 01:12:00,1745E-3,5C000000,-0723,0829,12126,032.0,045.6,0.469,732.8,01.19,0.508
2015-06-07 01:13:00,1641E-3,5C000000,-0723,0828,12306,032.0,045.6,0.469,732.8,01.19,0.508
2015-06-07 01:14:00,1732E-3,5C000000,-0723,0829,12177,032.0,045.6,0.469,732.8,01.19,0.508
2015-06-07 01:15:00,1759E-3,5C000000,-0723,0828,12143,032.0,045.6,0.469,732.8,01.19,0.508
2015-06-07 01:16:00,1745E-3,5C000000,-0723,0828,12132,032.1,045.6,0.469,732.8,01.19,0.508
2015-06-07 01:17:00,1725E-3,5C000000,-0723,0828,12090,032.1,045.6,0.469,732.8,01.19,0.508
2015-06-07 01:18:00,1770E-3,5C000000,-0723,0827,12140,032.0,045.6,0.469,732.8,01.19,0.508
2015-06-07 01:19:00,1848E-3,5C000000,-0723,0828,12244,032.1,045.6,0.469,732.8,01.19,0.508
2015-06-07 01:20:00,1807E-3,5C000000,-0723,0829,12162,032.1,045.6,0.469,732.8,01.19,0.508
2015-06-07 01:21:00,1675E-3,5C000000,-0723,0828,12301,032.1,045.6,0.469,732.8,01.19,0.508
2015-06-07 01:22:00,1705E-3,5C000000,-0723,0828,12295,032.1,045.6,0.469,732.8,01.19,0.508
2015-06-07 01:23:00,1775E-3,5C000000,-0723,0829,12074,032.1,045.6,0.469,732.8,01.19,0.508
2015-06-07 01:24:00,1761E-3,5C000000,-0723,0828,12143,032.1,045.6,0.469,732.8,01.19,0.508
2015-06-07 01:25:00,1692E-3,5C000000,-0723,0828,12163,032.1,045.6,0.469,732.8,01.19,0.508
2015-06-07 01:26:00,1774E-3,5C000000,-0723,0829,12272,032.1,045.6,0.469,732.7,01.19,0.508
2015-06-07 01:27:00,1729E-3,5C000000,-0723,0828,12100,032.1,045.6,0.469,732.7,01.19,0.508
2015-06-07 01:28:00,1759E-3,5C000000,-0723,0828,12179,032.1,045.6,0.469,732.8,01.19,0.508
2015-06-07 01:29:00,1659E-3,5C000000,-0723,0828,12292,032.1,045.6,0.469,732.7,01.19,0.508
2015-06-07 01:30:00,1654E-3,5C000000,-0723,0828,12287,032.1,045.6,0.469,732.7,01.19,0.508
2015-06-07 01:31:00,1794E-3,5C000000,-0723,0829,12153,032.1,045.6,0.469,732.7,01.19,0.508
2015-06-07 01:32:00,1731E-3,5C000000,-0723,0828,12260,032.1,045.6,0.469,732.7,01.19,0.508
2015-06-07 01:33:00,1725E-3,5C000000,-0723,0829,12214,032.1,045.6,0.469,732.8,01.19,0.508
2015-06-07 01:34:00,1754E-3,5C000000,-0723,0829,12186,032.1,045.6,0.469,732.7,01.19,0.508
2015-06-07 01:35:00,1898E-3,5C000000,-0723,0828,12284,032.2,045.6,0.469,732.7,01.19,0.508
2015-06-07 01:36:00,1691E-3,5C000000,-0723,0828,12221,032.2,045.6,0.469,732.7,01.19,0.508
2015-06-07 01:37:00,1849E-3,5C000000,-0723,0829,12061,032.2,045.6,0.469,732.7,01.19,0.508
2015-06-07 01:38:00,1768E-3,5C000000,-0723,0828,12198,032.2,045.6,0.469,732.7,01.19,0.508
2015-06-07 01:39:00,1741E-3,5C000000,-0723,0829,12275,032.2,045.6,0.469,732.7,01.19,0.508
2015-06-07 01:40:00,1752E-3,5C000000,-0723,0829,12227,032.2,045.6,0.469,732.7,01.19,0.508
2015-06-07 01:41:00,1784E-3,5C000000,-0723,0828,12342,032.2,045.6,0.469,732.7,01.19,0.508
2015-06-07 01:42:00,1727E-3,5C000000,-0723,0829,12228,032.2,045.6,0.468,732.7,01.19,0.508
2015-06-07 01:43:00,1868E-3,5C000000,-0723,0829,12216,032.2,045.6,0.469,732.7,01.19,0.508
2015-06-07 01:44:00,1764E-3,5C000000,-0723,0828,12253,032.2,045.6,0.469,732.7,01.19,0.508
2015-06-07 01:45:00,1828E-3,5C000000,-0723,0828,12121,032.2,045.6,0.469,732.7,01.19,0.508
2015-06-07 01:46:00,1701E-3,5C000000,-0723,0829,12013,032.2,045.6,0.469,732.7,01.19,0.508
2015-06-07 01:47:00,1727E-3,5C000000,-0723,0829,12304,032.2,045.6,0.469,732.7,01.19,0.508
2015-06-07 01:48:00,1746E-3,5C000000,-0723,0828,12269,032.2,045.6,0.469,732.6,01.19,0.508
2015-06-07 01:49:00,1611E-3,5C000000,-0723,0827,12403,032.2,045.6,0.468,732.7,01.19,0.508
2015-06-07 01:50:00,1591E-3,5C000000,-0723,0827,12164,032.2,045.6,0.469,732.7,01.19,0.508
2015-06-07 01:51:00,1707E-3,5C000000,-0723,0829,12226,032.2,045.6,0.469,732.6,01.19,0.508
2015-06-07 01:52:00,1677E-3,5C000000,-0723,0829,12228,032.3,045.6,0.468,732.6,01.19,0.508
2015-06-07 01:53:00,1640E-3,5C000000,-0723,0829,11908,032.3,045.6,0.469,732.6,01.19,0.508
2015-06-07 01:54:00,1815E-3,5C000000,-0723,0829,12222,032.2,045.6,0.469,732.6,01.19,0.508
2015-06-07 01:55:00,1632E-3,5C000000,-0723,0828,12334,032.3,045.6,0.469,732.6,01.19,0.508
2015-06-07 01:56:00,1672E-3,5C000000,-0723,0828,12244,032.3,045.6,0.468,732.6,01.19,0.508
2015-06-07 01:57:00,1818E-3,5C000000,-0723,0827,12261,032.3,045.6,0.469,732.6,01.19,0.508
2015-06-07 01:58:00,1862E-3,5C000000,-0723,0827,12142,032.3,045.6,0.469,732.6,01.19,0.508
2015-06-07 01:59:00,1813E-3,5C000000,-0723,0827,12322,032.3,045.6,0.468,732.6,01.19,0.508
2015-06-07 02:00:00,1670E-3,5C000000,-0723,0829,12155,032.3,045.6,0.469,732.6,01.19,0.508
2015-06-07 02:01:00,1701E-3,5C000000,-0723,0829,12235,032.3,045.6,0.469,732.6,01.19,0.508
2015-06-07 02:02:00,1857E-3,5C000000,-0723,0829,12134,032.3,045.6,0.469,732.6,01.19,0.508
2015-06-07 02:03:00,1630E-3,5C000000,-0723,0827,12266,032.3,045.6,0.468,732.6,01.19,0.508
2015-06-07 02:04:00,1781E-3,5C000000,-0723,0829,12321,032.3,045.6,0.469,732.6,01.19,0.508
2015-06-07 02:05:00,1747E-3,5C000000,-0723,0829,12183,032.3,045.6,0.469,732.6,01.19,0.508
2015-06-07 02:06:00,1721E-3,5C000000,-0723,0827,12259,032.4,045.6,0.468,732.6,01.19,0.508
2015-06-07 02:07:00,1629E-3,5C000000,-0723,0829,12207,032.3,045.6,0.469,732.7,01.19,0.508
2015-06-07 02:08:00,1777E-3,5C000000,-0723,0827,12380,032.4,045.6,0.469,732.6,01.19,0.508
2015-06-07 02:09:00,1740E-3,5C000000,-0723,0827,12157,032.4,045.6,0.468,732.6,01.19,0.508
2015-06-07 02:10:00,1833E-3,5C000000,-0723,0828,12370,032.3,045.6,0.469,732.6,01.19,0.508
2015-06-07 02:11:00,1704E-3,5C000000,-0723,0828,12315,032.4,045.6,0.469,732.6,01.19,0.508
2015-06-07 02:12:00,1792E-3,5C000000,-0723,0828,12221,032.4,045.6,0.468,732.6,01.19,0.508
2015-06-07 02:13:00,1719E-3,5C000000,-0723,0827,12161,032.4,045.6,0.468,732.6,01.19,0.508
2015-06-07 02:14:00,1681E-3,5C000000,-0723,0827,12292,032.4,045.6,0.469,732.6,01.19,0.508
2015-06-07 02:15:00,1560E-3,5C000000,-0723,0828,12048,032.4,045.6,0.468,732.6,01.19,0.508
2015-06-07 02:16:00,1750E-3,5C000000,-0723,0827,11221,032.4,045.6,0.468,732.6,01.19,0.508
2015-06-07 02:17:00,1686E-3,5C000000,-0723,0828,12215,032.4,045.6,0.469,732.5,01.19,0.508
2015-06-07 02:18:00,1752E-3,5C000000,-0723,0829,12171,032.4,045.6,0.469,732.6,01.19,0.508
2015-06-07 02:19:00,1756E-3,5C000000,-0723,0828,12145,032.4,045.6,0.468,732.5,01.19,0.508
2015-06-07 02:20:00,1543E-3,5C000000,-0723,0827,12131,032.4,045.6,0.469,732.5,01.19,0.508
2015-06-07 02:21:00,1908E-3,5C000000,-0723,0829,12226,032.4,045.6,0.469,732.5,01.19,0.508
2015-06-07 02:22:00,1752E-3,5C000000,-0723,0827,12107,032.4,045.6,0.468,732.6,01.19,0.508
2015-06-07 02:23:00,1812E-3,5C000000,-0723,0827,12296,032.5,045.6,0.468,732.5,01.19,0.508
2015-06-07 02:24:00,1732E-3,5C000000,-0723,0828,12334,032.5,045.6,0.469,732.6,01.19,0.508
2015-06-07 02:25:00,1594E-3,5C000000,-0723,0828,12211,032.5,045.6,0.468,732.5,01.19,0.508
2015-06-07 02:26:00,1758E-3,5C000000,-0723,0829,12362,032.5,045.6,0.468,732.5,01.19,0.508
2015-06-07 02:27:00,1733E-3,5C000000,-0723,0829,12198,032.5,045.6,0.469,732.5,01.19,0.508
2015-06-07 02:28:00,1747E-3,5C000000,-0723,0829,12153,032.5,045.6,0.468,732.5,01.19,0.508
2015-06-07 02:29:00,1715E-3,5C000000,-0723,0829,12153,032.5,045.6,0.468,732.6,01.19,0.508
2015-06-07 02:30:00,1791E-3,5C000000,-0723,0829,12225,032.5,045.6,0.469,732.6,01.19,0.508
2015-06-07 02:31:00,1733E-3,5C000000,-0723,0828,12114,032.5,045.6,0.468,732.6,01.19,0.508
2015-06-07 02:32:00,1789E-3,5C000000,-0723,0829,12218,032.5,045.6,0.468,732.5,01.19,0.508
2015-06-07 02:33:00,1727E-3,5C000000,-0723,0829,12170,032.5,045.6,0.469,732.6,01.19,0.508
2015-06-07 02:34:00,1623E-3,5C000000,-0723,0828,12127,032.5,045.6,0.468,732.6,01.19,0.508
2015-06-07 02:35:00,1805E-3,5C000000,-0723,0829,12237,032.5,045.6,0.468,732.5,01.19,0.508
2015-06-07 02:36:00,1751E-3,5C000000,-0723,0829,12039,032.5,045.6,0.468,732.5,01.19,0.508
2015-06-07 02:37:00,1728E-3,5C000000,-0723,0829,12297,032.6,045.6,0.468,732.5,01.19,0.508
2015-06-07 02:38:00,1761E-3,5C000000,-0723,0827,12285,032.5,045.6,0.468,732.5,01.19,0.508
2015-06-07 02:39:00,1703E-3,5C000000,-0723,0827,12190,032.5,045.6,0.468,732.5,01.19,0.508
2015-06-07 02:40:00,1715E-3,5C000000,-0723,0828,12169,032.5,045.6,0.468,732.5,01.19,0.508
2015-06-07 02:41:00,1866E-3,5C000000,-0723,0828,12109,032.6,045.6,0.468,732.5,01.19,0.508
2015-06-07 02:42:00,1862E-3,5C000000,-0723,0828,12305,032.6,045.6,0.468,732.4,01.19,0.508
2015-06-07 02:43:00,1808E-3,5C000000,-0723,0828,12152,032.6,045.6,0.468,732.5,01.19,0.508
2015-06-07 02:44:00,1686E-3,5C000000,-0723,0829,12277,032.6,045.6,0.468,732.5,01.19,0.508
2015-06-07 02:45:00,1738E-3,5C000000,-0723,0829,12175,032.6,045.6,0.468,732.5,01.19,0.508
2015-06-07 02:46:00,1670E-3,5C000000,-0723,0828,12171,032.6,045.6,0.468,732.5,01.19,0.508
2015-06-07 02:47:00,1764E-3,5C000000,-0723,0828,12217,032.6,045.6,0.468,732.5,01.19,0.508
2015-06-07 02:48:00,1738E-3,5C000000,-0723,0828,12306,032.6,045.6,0.468,732.5,01.19,0.508
2015-06-07 02:49:00,1672E-3,5C000000,-0723,0831,12235,032.6,045.6,0.468,732.5,01.19,0.508
2015-06-07 02:50:00,1623E-3,5C000000,-0723,0829,12279,032.6,045.6,0.468,732.5,01.19,0.508
2015-06-07 02:51:00,1867E-3,5C000000,-0723,0829,12262,032.6,045.6,0.468,732.5,01.19,0.508
2015-06-07 02:52:00,1708E-3,5C000000,-0723,0829,12313,032.6,045.6,0.468,732.4,01.19,0.508
2015-06-07 02:53:00,1604E-3,5C000000,-0723,0830,12205,032.6,045.6,0.468,732.4,01.19,0.508
2015-06-07 02:54:00,1671E-3,5C000000,-0723,0829,12229,032.6,045.6,0.468,732.5,01.19,0.508
2015-06-07 02:55:00,1775E-3,5C000000,-0723,0829,12183,032.7,045.6,0.468,732.4,01.19,0.508
2015-06-07 02:56:00,1744E-3,5C000000,-0723,0829,12246,032.6,045.6,0.468,732.4,01.19,0.508
2015-06-07 02:57:00,1746E-3,5C000000,-0723,0830,12320,032.7,045.6,0.468,732.4,01.19,0.508
2015-06-07 02:58:00,1764E-3,5C000000,-0723,0830,12226,032.7,045.6,0.468,732.4,01.19,0.508
2015-06-07 02:59:00,1668E-3,5C000000,-0723,0828,12186,032.7,045.6,0.468,732.4,01.19,0.508
2015-06-07 03:00:00,1747E-3,5C000000,-0723,0829,12277,032.7,045.6,0.468,732.4,01.19,0.508
2015-06-07 03:01:00,1779E-3,5C000000,-0723,0829,12161,032.7,045.6,0.468,732.4,01.19,0.508
2015-06-07 03:02:00,1608E-3,5C000000,-0723,0828,12247,032.7,045.6,0.468,732.3,01.19,0.508
2015-06-07 03:03:00,1685E-3,5C000000,-0723,0830,12158,032.7,045.6,0.468,732.3,01.19,0.508
2015-06-07 03:04:00,1771E-3,5C000000,-0723,0830,12145,032.7,045.6,0.468,732.3,01.19,0.508
2015-06-07 03:05:00,1599E-3,5C000000,-0723,0829,12091,032.7,045.6,0.468,732.3,01.19,0.508
2015-06-07 03:06:00,1788E-3,5C000000,-0723,0829,12115,032.7,045.6,0.468,732.3,01.19,0.508
2015-06-07 03:07:00,1866E-3,5C000000,-0723,0829,12232,032.7,045.6,0.468,732.3,01.19,0.508
2015-06-07 03:08:00,1740E-3,5C000000,-0723,0829,12210,032.7,045.6,0.468,732.3,01.19,0.508
2015-06-07 03:09:00,1713E-3,5C000000,-0723,0828,12076,032.8,045.6,0.468,732.3,01.19,0.508
2015-06-07 03:10:00,1712E-3,5C000000,-0723,0829,12364,032.8,045.6,0.468,732.3,01.19,0.508
2015-06-07 03:11:00,1903E-3,5C000000,-0723,0829,12173,032.8,045.6,0.468,732.3,01.19,0.508
2015-06-07 03:12:00,1788E-3,5C000000,-0723,0828,12075,032.7,045.6,0.468,732.3,01.19,0.508
2015-06-07 03:13:00,1839E-3,5C000000,-0723,0830,12169,032.8,045.6,0.468,732.3,01.19,0.508
2015-06-07 03:14:00,1744E-3,5C000000,-0723,0828,12121,032.8,045.6,0.468,732.3,01.19,0.508
2015-06-07 03:15:00,1779E-3,5C000000,-0723,0829,12266,032.8,045.6,0.468,732.3,01.19,0.508
2015-06-07 03:16:00,1733E-3,5C000000,-0723,0829,12288,032.8,045.6,0.468,732.3,01.19,0.508
2015-06-07 03:17:00,1712E-3,5C000000,-0723,0829,12253,032.8,045.6,0.468,732.3,01.19,0.508
2015-06-07 03:18:00,1765E-3,5C000000,-0723,0829,12225,032.8,045.6,0.468,732.3,01.19,0.508
2015-06-07 03:19:00,1755E-3,5C000000,-0723,0829,12183,032.8,045.6,0.468,732.3,01.19,0.508
2015-06-07 03:20:00,1771E-3,5C000000,-0723,0829,12231,032.8,045.6,0.468,732.3,01.19,0.508
2015-06-07 03:21:00,1686E-3,5C000000,-0723,0829,12150,032.8,045.6,0.468,732.3,01.19,0.508
2015-06-07 03:22:00,1714E-3,5C000000,-0723,0829,12214,032.8,045.6,0.468,732.3,01.19,0.508
2015-06-07 03:23:00,1830E-3,5C000000,-0723,0829,12325,032.8,045.6,0.468,732.2,01.19,0.508
2015-06-07 03:24:00,1963E-3,5C000000,-0723,0829,12167,032.8,045.6,0.468,732.2,01.19,0.508
2015-06-07 03:25:00,1875E-3,5C000000,-0723,0829,12247,032.9,045.6,0.467,732.2,01.19,0.508
2015-06-07 03:26:00,1743E-3,5C000000,-0723,0828,12249,032.8,045.6,0.468,732.2,01.19,0.508
2015-06-07 03:27:00,1663E-3,5C000000,-0723,0830,12161,032.9,045.6,0.467,732.2,01.19,0.508
2015-06-07 03:28:00,1786E-3,5C000000,-0723,0829,12123,032.9,045.6,0.468,732.2,01.19,0.508
2015-06-07 03:29:00,1820E-3,5C000000,-0723,0828,12249,032.9,045.6,0.467,732.3,01.19,0.508
2015-06-07 03:30:00,1777E-3,5C000000,-0723,0829,12310,032.9,045.6,0.468,732.2,01.19,0.508
2015-06-07 03:31:00,1779E-3,5C000000,-0723,0829,12218,032.9,045.6,0.467,732.2,01.19,0.508
2015-06-07 03:32:00,1793E-3,5C000000,-0723,0829,12290,032.9,045.6,0.468,732.2,01.19,0.508
2015-06-07 03:33:00,1761E-3,5C000000,-0723,0828,12191,032.9,045.6,0.467,732.2,01.19,0.508
2015-06-07 03:34:00,1740E-3,5C000000,-0723,0828,12181,033.0,045.6,0.468,732.2,01.19,0.508
2015-06-07 03:35:00,1644E-3,5C000000,-0723,0829,12216,032.9,045.6,0.467,732.3,01.19,0.508
2015-06-07 03:36:00,1745E-3,5C000000,-0723,0829,12316,032.9,045.6,0.468,732.2,01.19,0.508
2015-06-07 03:37:00,1668E-3,5C000000,-0723,0829,12333,032.9,045.6,0.467,732.3,01.19,0.508
2015-06-07 03:38:00,1690E-3,5C000000,-0723,0829,12146,033.0,045.6,0.468,732.3,01.19,0.508
2015-06-07 03:39:00,1735E-3,5C000000,-0723,0827,12296,033.0,045.6,0.467,732.2,01.19,0.508
2015-06-07 03:40:00,1767E-3,5C000000,-0723,0830,12415,033.0,045.6,0.468,732.2,01.19,0.508
2015-06-07 03:41:00,1759E-3,5C000000,-0723,0828,12243,033.0,045.6,0.467,732.2,01.19,0.508
2015-06-07 03:42:00,1685E-3,5C000000,-0723,0829,12163,033.0,045.6,0.468,732.2,01.19,0.508
2015-06-07 03:43:00,1704E-3,5C000000,-0723,0829,12048,033.0,045.6,0.467,732.2,01.19,0.508
2015-06-07 03:44:00,1864E-3,5C000000,-0723,0829,12216,033.0,045.6,0.468,732.2,01.19,0.508
2015-06-07 03:45:00,1725E-3,5C000000,-0723,0828,12120,033.0,045.6,0.467,732.2,01.19,0.508
2015-06-07 03:46:00,1833E-3,5C000000,-0723,0829,12232,033.0,045.6,0.467,732.2,01.19,0.508
2015-06-07 03:47:00,1788E-3,5C000000,-0723,0828,12214,033.0,045.6,0.467,732.2,01.19,0.508
2015-06-07 03:48:00,1725E-3,5C000000,-0723,0828,12211,033.0,045.6,0.468,732.2,01.19,0.508
2015-06-07 03:49:00,1759E-3,5C000000,-0723,0829,12183,033.0,045.6,0.467,732.2,01.19,0.508
2015-06-07 03:50:00,1800E-3,5C000000,-0723,0828,12236,033.0,045.6,0.468,732.2,01.19,0.508
2015-06-07 03:51:00,1816E-3,5C000000,-0723,0828,12197,033.0,045.6,0.467,732.2,01.19,0.508
2015-06-07 03:52:00,1716E-3,5C000000,-0723,0829,12225,033.1,045.6,0.468,732.2,01.19,0.508
2015-06-07 03:53:00,1683E-3,5C000000,-0723,0828,12304,033.1,045.6,0.467,732.1,01.19,0.508
2015-06-07 03:54:00,1751E-3,5C000000,-0723,0828,12140,033.0,045.6,0.468,732.1,01.19,0.508
2015-06-07 03:55:00,1838E-3,5C000000,-0723,0828,12296,033.1,045.6,0.467,732.1,01.19,0.508
2015-06-07 03:56:00,1675E-3,5C000000,-0723,0829,12155,033.1,045.6,0.468,732.1,01.19,0.508
2015-06-07 03:57:00,1691E-3,5C000000,-0723,0829,12223,033.0,045.6,0.467,732.0,01.19,0.508
2015-06-07 03:58:00,1728E-3,5C000000,-0723,0829,12154,033.1,045.6,0.468,732.0,01.19,0.508
2015-06-07 03:59:00,1768E-3,5C000000,-0723,0829,12097,033.1,045.6,0.467,732.0,01.19,0.508
2015-06-07 04:00:00,1823E-3,5C000000,-0723,0830,12285,033.1,045.6,0.468,732.0,01.19,0.508
2015-06-07 04:01:00,1828E-3,5C000000,-0723,0828,12168,033.1,045.6,0.467,732.1,01.19,0.508
2015-06-07 04:02:00,1768E-3,5C000000,-0723,0829,12235,033.1,045.6,0.468,732.1,01.19,0.508
2015-06-07 04:03:00,1888E-3,5C000000,-0723,0828,12235,033.1,045.6,0.467,732.1,01.19,0.508
2015-06-07 04:04:00,1675E-3,5C000000,-0723,0829,12378,033.1,045.6,0.467,732.0,01.19,0.508
2015-06-07 04:05:00,1849E-3,5C000000,-0723,0829,12121,033.1,045.6,0.467,732.0,01.19,0.508
2015-06-07 04:06:00,1593E-3,5C000000,-0723,0829,12262,033.1,045.6,0.467,732.1,01.19,0.508
2015-06-07 04:07:00,1750E-3,5C000000,-0723,0829,12191,033.1,045.6,0.467,732.1,01.19,0.508
2015-06-07 04:08:00,1733E-3,5C000000,-0723,0829,12249,033.1,045.6,0.467,732.1,01.19,0.508
2015-06-07 04:09:00,1627E-3,5C000000,-0723,0827,12234,033.1,045.6,0.467,732.0,01.19,0.508
2015-06-07 04:10:00,1535E-3,5C000000,-0723,0828,12079,033.1,045.6,0.467,732.1,01.19,0.508
2015-06-07 04:11:00,1788E-3,5C000000,-0723,0829,12162,033.1,045.6,0.468,732.1,01.19,0.508
2015-06-07 04:12:00,1683E-3,5C000000,-0723,0828,12174,033.1,045.6,0.467,732.1,01.19,0.508
2015-06-07 04:13:00,1756E-3,5C000000,-0723,0828,12079,033.2,045.6,0.467,732.1,01.19,0.508
2015-06-07 04:14:00,1724E-3,5C000000,-0723,0829,12170,033.2,045.6,0.467,732.0,01.19,0.508
2015-06-07 04:15:00,1719E-3,5C000000,-0723,0830,12190,033.2,045.6,0.467,732.0,01.19,0.508
2015-06-07 04:16:00,1649E-3,5C000000,-0723,0828,12179,033.2,045.6,0.467,732.1,01.19,0.508
2015-06-07 04:17:00,1782E-3,5C000000,-0723,0828,12157,033.2,045.6,0.467,732.0,01.19,0.508
2015-06-07 04:18:00,1790E-3,5C000000,-0723,0828,12178,033.2,045.6,0.467,732.0,01.19,0.508
2015-06-07 04:19:00,1724E-3,5C000000,-0723,0829,12165,033.2,045.6,0.467,732.0,01.19,0.508
2015-06-07 04:20:00,1798E-3,5C000000,-0723,0829,11083,033.2,045.6,0.467,732.0,01.19,0.508